Weather History for Orlando, FL

Change the Weather History Date:

Tuesday, May 27, 2014

  Actual Average Record
Temperature  
Mean Temperature 79 °F -  
Max Temperature 88 °F 87 °F 97 °F (2000)
Min Temperature 71 °F 68 °F 66 °F (2007)
Cooling Degree Days 14    
Growing Degree Days 29 (Base 50)    
Moisture  
Dew Point 68 °F    
Average Humidity 72    
Maximum Humidity 93    
Minimum Humidity 46    
Precipitation  
Precipitation 0.00 in - - ()
Sea Level Pressure  
Sea Level Pressure 30.14 in    
Wind  
Wind Speed 5 mph (ESE)    
Max Wind Speed 18 mph    
Max Gust Speed -    
Visibility 10 miles    
Events      
Averages and records for this station are not official NWS values.
T = Trace of Precipitation, MM = Missing Value Source: NWS Daily Summary

Daily Weather History Graph

Daily Weather History Graph

Search for Another Location

Airport:

Trip Planner

Search our weather history database for the weather conditions in past years. The results will help you decide how hot, cold, wet, or windy it might be!

Date:

Astronomy

May. 27, 2014 Rise Set
Actual Time 6:29 AM EDT 8:15 PM EDT
Civil Twilight 6:02 AM EDT 8:42 PM EDT
Nautical Twilight 5:31 AM EDT 9:14 PM EDT
Astronomical Twilight 4:57 AM EDT 9:47 PM EDT
Moon 5:42 AM EDT (5/27) 7:23 PM EDT (5/27)
Length of Visible Light 14h 39m
Length of Day
13h 46m
Waning Crescent, 1% of the Moon is Illuminated
May 27
Waning Crescent
May 28
New
Jun 5
First Quarter
Jun 13
Full
Jun 19
Last Quarter

Hourly Weather History & Observations

Time (EDT) Temp. Heat Index Dew Point Humidity Pressure Visibility Wind Dir Wind Speed Gust Speed Precip Events Conditions
12:53 AM 73.0 °F - 70.0 °F 90% 30.18 in 10.0 mi East 3.5 mph - N/A   Clear
1:53 AM 72.0 °F - 70.0 °F 93% 30.17 in 10.0 mi East 4.6 mph - N/A   Clear
2:53 AM 72.0 °F - 69.1 °F 91% 30.15 in 9.0 mi ESE 3.5 mph - N/A   Clear
3:53 AM 72.0 °F - 69.1 °F 91% 30.15 in 9.0 mi East 3.5 mph - N/A   Clear
4:53 AM 72.0 °F - 69.1 °F 91% 30.15 in 9.0 mi Calm Calm - N/A   Clear
5:53 AM 71.1 °F - 69.1 °F 93% 30.15 in 7.0 mi Calm Calm - N/A   Clear
6:53 AM 71.1 °F - 69.1 °F 93% 30.17 in 6.0 mi Calm Calm - N/A   Clear
7:53 AM 73.9 °F - 71.1 °F 91% 30.18 in 10.0 mi East 4.6 mph - N/A   Clear
8:53 AM 78.1 °F - 71.1 °F 79% 30.19 in 10.0 mi ESE 8.1 mph - N/A   Clear
9:53 AM 79.0 °F - 70.0 °F 74% 30.19 in 10.0 mi ESE 6.9 mph - N/A   Clear
10:53 AM 82.0 °F 85.9 °F 70.0 °F 67% 30.19 in 10.0 mi SE 3.5 mph - N/A   Scattered Clouds
11:07 AM 82.9 °F 85.8 °F 68.0 °F 60% 30.18 in 10.0 mi Variable 3.5 mph - N/A   Mostly Cloudy
11:17 AM 84.0 °F 87.0 °F 68.0 °F 58% 30.18 in 10.0 mi East 6.9 mph - N/A   Mostly Cloudy
11:53 AM 82.9 °F 85.4 °F 66.9 °F 58% 30.19 in 10.0 mi ENE 6.9 mph - N/A   Scattered Clouds
12:53 PM 84.9 °F 86.6 °F 64.9 °F 51% 30.16 in 10.0 mi ENE 4.6 mph - N/A   Partly Cloudy
1:53 PM 87.1 °F 88.3 °F 64.0 °F 46% 30.14 in 10.0 mi Variable 4.6 mph - N/A   Clear
2:53 PM 87.1 °F 88.9 °F 64.9 °F 48% 30.12 in 10.0 mi East 11.5 mph - N/A   Mostly Cloudy
3:53 PM 82.9 °F 85.8 °F 68.0 °F 60% 30.11 in 10.0 mi ENE 18.4 mph - N/A   Partly Cloudy
4:53 PM 82.9 °F 85.8 °F 68.0 °F 60% 30.09 in 10.0 mi East 13.8 mph - N/A   Partly Cloudy
5:53 PM 82.9 °F 85.4 °F 66.9 °F 58% 30.08 in 10.0 mi ESE 12.7 mph - N/A   Partly Cloudy
6:53 PM 82.0 °F 84.1 °F 66.0 °F 58% 30.08 in 10.0 mi ESE 10.4 mph - N/A   Clear
7:53 PM 79.0 °F - 66.0 °F 64% 30.09 in 10.0 mi SE 9.2 mph - N/A   Clear
8:53 PM 77.0 °F - 66.9 °F 71% 30.09 in 10.0 mi SE 8.1 mph - N/A   Clear
9:53 PM 75.9 °F - 68.0 °F 76% 30.10 in 10.0 mi ESE 6.9 mph - N/A   Clear
10:53 PM 75.0 °F - 68.0 °F 79% 30.11 in 10.0 mi SE 5.8 mph - N/A   Clear
11:53 PM 73.9 °F - 68.0 °F 82% 30.12 in 10.0 mi SE 3.5 mph - N/A   Clear